SA3PJN-WX Weather Reports


Display with metric or nautical units.
time (UTC)temp
F
wind
direction
speed
MPH
gust
MPH
rain 1hr
in
rain 24hr
in
rain mn
in
humidity
%
barometer
mb
20260510075500 36 277 3.0 6.0 0.00 0.00 0.00 10 967.7
20260510075000 36 273 3.0 7.0 0.00 0.00 0.00 10 967.6
20260510074500 36 252 3.0 8.0 0.00 0.00 0.00 10 967.7
20260510073930 35 311 3.0 8.0 0.00 0.00 0.00 10 967.6
20260510073430 35 255 3.0 6.0 0.00 0.00 0.00 10 967.7
20260510072930 35 246 3.0 6.0 0.00 0.00 0.00 10 967.8
20260510072400 35 253 3.0 6.0 0.00 0.00 0.00 10 967.9
20260510071900 35 269 3.0 6.0 0.00 0.00 0.00 10 967.8
20260510071400 34 246 3.0 7.0 0.00 0.00 0.00 10 968.1
20260510070900 34 250 3.0 7.0 0.00 0.00 0.00 10 968.2
20260510070400 34 239 3.0 7.0 0.00 0.00 0.00 10 968.2
20260510065830 34 241 3.0 6.0 0.00 0.00 0.00 10 968.2
20260510065330 34 235 3.0 6.0 0.00 0.00 0.00 10 968.2
20260510064800 34 212 3.0 7.0 0.00 0.00 0.00 10 968.3
20260510064300 34 243 2.0 7.0 0.00 0.00 0.00 10 968.3
20260510063759 35 220 2.0 7.0 0.00 0.00 0.00 10 968.3
20260510063259 35 258 2.0 6.0 0.00 0.00 0.00 10 968.4
20260510062729 35 169 3.0 7.0 0.00 0.00 0.00 10 968.4
20260510062229 35 257 4.0 8.0 0.00 0.00 0.00 10 968.4
20260510061729 35 211 5.0 10.0 0.00 0.00 0.00 10 968.4
20260510061229 36 198 5.0 10.0 0.00 0.00 0.00 10 968.2
20260510060659 36 224 5.0 10.0 0.00 0.00 0.00 10 968.3
20260510060159 37 229 5.0 10.0 0.00 0.00 0.00 10 968.2
20260510055659 37 260 5.0 9.0 0.00 0.00 0.00 10 968.3
20260510055159 37 234 5.0 10.0 0.00 0.00 0.00 10 968.3
20260510054659 37 265 5.0 10.0 0.00 0.00 0.00 10 968.2
20260510054159 37 259 5.0 10.0 0.00 0.00 0.00 10 968.2
20260510053659 37 288 5.0 9.0 0.00 0.00 0.00 10 968.2
20260510053159 37 265 5.0 9.0 0.00 0.00 0.00 10 968.3
20260510052659 37 283 5.0 9.0 0.00 0.00 0.00 10 968.4
20260510052159 37 263 5.0 9.0 0.00 0.00 0.00 10 968.3
20260510051629 37 291 5.0 9.0 0.00 0.00 0.00 10 968.3
20260510051129 37 258 4.0 9.0 0.00 0.00 0.00 10 968.3
20260510050629 37 258 4.0 7.0 0.00 0.00 0.00 10 968.4
20260510050129 37 286 4.0 7.0 0.00 0.00 0.00 10 968.7
20260510045629 37 264 4.0 7.0 0.00 0.00 0.00 10 968.6
20260510045129 37 257 5.0 9.0 0.00 0.00 0.00 10 968.6
20260510044629 37 264 5.0 9.0 0.00 0.00 0.00 10 968.6
20260510044059 37 260 5.0 8.0 0.00 0.00 0.00 10 968.4
20260510043559 37 274 5.0 8.0 0.00 0.00 0.00 10 968.3
20260510043059 38 237 5.0 8.0 0.00 0.00 0.00 10 968.5
20260510042559 38 279 5.0 8.0 0.00 0.00 0.00 10 968.5
20260510042059 38 256 5.0 7.0 0.00 0.00 0.00 10 968.4
20260510041559 38 268 4.0 7.0 0.00 0.00 0.00 10 968.5
20260510041059 38 249 4.0 7.0 0.00 0.00 0.00 10 968.5
20260510040559 38 265 4.0 7.0 0.00 0.00 0.00 10 968.6
20260510040059 38 247 3.0 7.0 0.00 0.00 0.00 10 968.6
20260510035559 38 265 2.0 6.0 0.00 0.00 0.00 10 968.6
20260510035059 38 269 2.0 4.0 0.00 0.00 0.00 10 968.6
20260510034559 38 263 2.0 6.0 0.00 0.00 0.00 10 968.6
20260510034059 38 294 4.0 6.0 0.00 0.00 0.00 10 968.5
20260510033558 38 15 4.0 6.0 0.00 0.00 0.00 10 968.7
20260510033058 38 19 3.0 9.0 0.00 0.00 0.00 10 968.7
20260510032528 38 335 3.0 9.0 0.00 0.00 0.00 10 968.7
20260510031958 38 15 4.0 9.0 0.00 0.00 0.00 10 968.7
20260510031458 38 314 3.0 9.0 0.00 0.00 0.00 10 968.8
20260510030958 38 18 3.0 10.0 0.00 0.00 0.00 10 968.8
20260510030458 38 305 4.0 10.0 0.00 0.00 0.00 10 968.9
20260510025928 38 278 4.0 8.0 0.00 0.00 0.00 10 968.9
20260510025358 38 288 3.0 8.0 0.00 0.00 0.00 10 968.9
20260510024828 38 305 4.0 8.0 0.00 0.00 0.00 10 969.1
20260510024328 38 262 5.0 8.0 0.00 0.00 0.00 10 969.2
20260510023828 38 249 5.0 9.0 0.00 0.00 0.00 10 969.2
20260510023258 38 265 5.0 9.0 0.00 0.00 0.00 10 969.2
20260510022758 38 241 5.0 9.0 0.00 0.00 0.00 10 969.3
20260510022258 39 295 5.0 9.0 0.00 0.00 0.00 10 969.3
20260510021728 39 256 5.0 9.0 0.00 0.00 0.00 10 969.4
20260510021158 39 252 5.0 9.0 0.00 0.00 0.00 10 969.5
20260510020658 39 278 5.0 9.0 0.00 0.00 0.00 10 969.4
20260510020158 39 291 4.0 9.0 0.00 0.00 0.00 10 969.4
20260510015658 39 262 4.0 9.0 0.00 0.00 0.00 10 969.6
20260510015128 39 288 5.0 8.0 0.00 0.00 0.00 10 969.7
20260510014628 39 225 5.0 8.0 0.00 0.00 0.00 10 969.7
20260510014128 39 256 5.0 9.0 0.00 0.00 0.00 10 969.7
20260510013558 40 223 5.0 9.0 0.00 0.00 0.00 10 969.9
20260510013058 40 251 4.0 7.0 0.00 0.00 0.00 10 969.8
20260510012558 40 221 4.0 7.0 0.00 0.00 0.00 10 969.7
20260510012058 40 235 4.0 7.0 0.00 0.00 0.00 10 969.6
20260510011558 40 251 3.0 7.0 0.00 0.00 0.00 10 969.8
20260510011028 41 259 3.0 6.0 0.00 0.00 0.00 10 969.9
20260510010528 41 249 2.0 5.0 0.00 0.00 0.00 10 969.9
20260510010028 41 262 2.0 5.0 0.00 0.00 0.00 10 970.0
20260510005458 41 184 2.0 5.0 0.00 0.00 0.00 10 969.9
20260510004958 41 51 3.0 5.0 0.00 0.00 0.00 10 970.0
20260510004428 41 22 4.0 6.0 0.00 0.00 0.00 10 970.0
20260510003928 41 24 3.0 6.0 0.00 0.00 0.00 99 970.0
20260510003428 41 40 2.0 4.0 0.00 0.00 0.00 98 970.1
20260510002928 42 24 1.0 4.0 0.00 0.00 0.00 98 970.2
20260510002428 42 98 1.0 4.0 0.00 0.00 0.00 98 970.1
20260510001928 42 238 1.0 6.0 0.00 0.00 0.00 98 970.0
20260510001428 42 282 2.0 7.0 0.00 0.00 0.00 98 969.8
20260510000928 42 189 3.0 8.0 0.00 0.00 0.00 99 969.9
20260510000358 42 203 4.0 11.0 0.00 0.00 0.00 98 969.9
20260509235858 42 195 3.0 11.0 0.00 0.00 0.00 98 970.0
20260509235358 42 222 3.0 11.0 0.00 0.00 0.00 97 970.0
20260509234858 42 202 3.0 12.0 0.00 0.00 0.00 97 970.0
20260509234357 43 149 4.0 12.0 0.00 0.00 0.00 96 970.0
20260509233857 43 208 4.0 13.0 0.00 0.00 0.00 95 970.0
20260509233357 43 182 5.0 13.0 0.00 0.00 0.00 92 969.9
20260509232857 44 182 4.0 12.0 0.00 0.00 0.00 88 969.9
20260509232357 45 187 4.0 12.0 0.00 0.00 0.00 83 970.0
20260509231857 46 91 3.0 12.0 0.00 0.00 0.00 79 970.0
20260509231357 46 144 3.0 12.0 0.00 0.00 0.00 74 969.8
20260509230857 47 193 4.0 9.0 0.00 0.00 0.00 71 969.7
20260509230357 47 137 4.0 10.0 0.00 0.00 0.00 70 969.7
20260509225857 47 222 4.0 10.0 0.00 0.00 0.00 69 969.8
20260509225357 47 174 5.0 9.0 0.00 0.00 0.00 68 969.8
20260509224858 47 177 4.0 9.0 0.00 0.00 0.00 68 969.8
20260509224357 47 234 4.0 9.0 0.00 0.00 0.00 67 969.8
20260509223857 47 141 4.0 9.0 0.00 0.00 0.00 66 969.9
20260509223328 48 212 4.0 10.0 0.00 0.00 0.00 66 969.8
20260509222827 48 206 4.0 10.0 0.00 0.00 0.00 65 969.8
20260509222327 48 266 4.0 11.0 0.00 0.00 0.00 65 969.8
20260509221827 48 239 4.0 11.0 0.00 0.00 0.00 64 969.8
20260509221327 48 256 4.0 11.0 0.00 0.00 0.00 63 969.8
20260509220827 48 266 4.0 13.0 0.00 0.00 0.00 63 969.8
20260509220327 48 271 4.0 13.0 0.00 0.00 0.00 62 969.9
20260509215827 48 83 4.0 13.0 0.00 0.00 0.00 61 969.9
20260509215257 48 195 4.0 8.0 0.00 0.00 0.00 61 969.9
20260509214727 48 169 4.0 9.0 0.00 0.00 0.00 60 970.0
20260509214227 49 194 3.0 10.0 0.00 0.00 0.00 59 970.0
20260509213727 49 252 4.0 10.0 0.00 0.00 0.00 59 970.2
20260509213227 49 246 5.0 15.0 0.00 0.00 0.00 58 970.2
20260509212727 49 280 5.0 15.0 0.00 0.00 0.00 57 970.3
20260509212227 49 248 4.0 15.0 0.00 0.00 0.00 56 970.2
20260509211657 49 21 4.0 12.0 0.00 0.00 0.00 55 970.3
20260509211157 49 193 3.0 10.0 0.00 0.00 0.00 55 970.4
20260509210657 49 226 4.0 10.0 0.00 0.00 0.00 55 970.5
20260509210157 49 229 4.0 11.0 0.00 0.00 0.00 55 970.4
20260509205657 49 234 4.0 19.0 0.00 0.00 0.00 55 970.4
20260509205157 49 187 4.0 19.0 0.00 0.00 0.00 55 970.4
20260509204657 49 214 3.0 12.0 0.00 0.00 0.00 56 970.6
20260509204157 49 195 4.0 10.0 0.00 0.00 0.00 55 970.6
20260509203657 49 260 4.0 13.0 0.00 0.00 0.00 55 970.6
20260509203127 49 288 4.0 13.0 0.00 0.00 0.00 55 970.6
20260509202626 49 233 4.0 13.0 0.00 0.00 0.00 54 970.6
20260509202126 49 266 3.0 8.0 0.00 0.00 0.00 55 970.8
20260509201626 49 235 3.0 9.0 0.00 0.00 0.00 55 970.8
20260509201056 49 256 3.0 9.0 0.00 0.00 0.00 55 970.8
20260509200556 49 264 3.0 9.0 0.00 0.00 0.00 55 970.8
20260509200056 50 268 3.0 9.0 0.00 0.00 0.00 56 970.9
20260509195556 49 298 4.0 9.0 0.00 0.00 0.00 55 970.9
20260509195026 50 210 4.0 12.0 0.00 0.00 0.00 55 971.0
20260509194456 50 240 5.0 12.0 0.00 0.00 0.00 56 970.9
20260509193956 50 190 5.0 11.0 0.00 0.00 0.00 56 970.9
20260509193456 50 175 5.0 11.0 0.00 0.00 0.00 56 970.9
20260509192956 50 231 5.0 12.0 0.00 0.00 0.00 56 971.1
20260509192426 50 224 5.0 12.0 0.00 0.00 0.00 55 970.9
20260509191926 50 226 5.0 10.0 0.00 0.00 0.00 54 971.0
20260509191356 51 234 5.0 20.0 0.00 0.00 0.00 53 971.0
20260509190856 51 179 6.0 20.0 0.00 0.00 0.00 53 971.0
20260509190356 51 259 5.0 18.0 0.00 0.00 0.00 52 970.9
20260509185856 51 240 5.0 11.0 0.00 0.00 0.00 52 971.0
20260509185326 51 266 4.0 14.0 0.00 0.00 0.00 53 971.0
20260509184826 50 227 5.0 15.0 0.00 0.00 0.00 53 970.9
20260509184326 50 228 5.0 15.0 0.00 0.00 0.00 55 971.2
20260509183826 50 67 5.0 10.0 0.00 0.00 0.00 56 971.2
20260509183326 50 28 4.0 10.0 0.00 0.00 0.00 56 971.1
20260509182826 50 21 3.0 6.0 0.00 0.00 0.00 58 971.0
20260509182326 50 270 4.0 6.0 0.00 0.00 0.00 59 971.1
20260509181756 50 15 4.0 6.0 0.00 0.00 0.00 58 971.1
20260509181256 50 14 3.0 5.0 0.00 0.00 0.00 58 971.2
20260509180755 51 12 1.0 4.0 0.00 0.00 0.00 57 971.2
20260509180255 51 44 0.0 3.0 0.00 0.00 0.00 57 971.4
20260509175755 51 308 0.0 2.0 0.00 0.00 0.00 58 971.2
20260509175255 51 128 0.0 2.0 0.00 0.00 0.00 58 971.3
20260509174755 51 91 0.0 3.0 0.00 0.00 0.00 58 971.4
20260509174255 51 226 1.0 4.0 0.00 0.00 0.00 59 971.3
20260509173725 51 70 1.0 4.0 0.00 0.00 0.00 59 971.4
20260509173225 51 98 1.0 5.0 0.00 0.00 0.00 60 971.6
20260509172655 51 46 2.0 5.0 0.00 0.00 0.00 59 971.7
20260509172155 51 134 2.0 5.0 0.00 0.00 0.00 59 971.7
20260509171655 51 131 2.0 6.0 0.00 0.00 0.00 60 971.7
20260509171155 51 158 2.0 6.0 0.00 0.00 0.00 59 971.8
20260509170655 51 159 2.0 6.0 0.00 0.00 0.00 59 971.9
20260509170155 51 203 1.0 5.0 0.00 0.00 0.00 60 971.9
20260509165655 51 317 1.0 5.0 0.00 0.00 0.00 59 971.9
20260509165155 51 358 1.0 5.0 0.00 0.00 0.00 60 972.0
20260509164655 51 67 2.0 7.0 0.00 0.00 0.00 59 972.0
20260509164155 50 30 2.0 10.0 0.00 0.00 0.00 59 972.1
20260509163655 50 130 3.0 11.0 0.00 0.00 0.00 58 972.0
20260509163155 50 135 3.0 11.0 0.00 0.00 0.00 59 972.1
20260509162655 51 36 2.0 7.0 0.00 0.00 0.00 58 972.1
20260509162125 51 103 3.0 8.0 0.00 0.00 0.00 57 972.2
20260509161625 51 163 3.0 12.0 0.00 0.00 0.00 56 972.1
20260509161055 51 155 4.0 12.0 0.00 0.00 0.00 55 972.2
20260509160555 51 166 3.0 9.0 0.00 0.00 0.00 56 972.3
20260509160055 52 203 4.0 10.0 0.00 0.00 0.00 55 972.4
20260509155555 52 162 4.0 12.0 0.00 0.00 0.00 55 972.5
20260509155055 52 171 5.0 13.0 0.00 0.00 0.00 54 972.6
20260509154555 52 166 5.0 14.0 0.00 0.00 0.00 53 972.6
20260509154055 52 127 6.0 14.0 0.00 0.00 0.00 51 972.5
20260509153555 52 132 5.0 11.0 0.00 0.00 0.00 51 972.6
20260509153025 53 188 5.0 13.0 0.00 0.00 0.00 50 972.6
20260509152525 53 157 5.0 13.0 0.00 0.00 0.00 48 972.5
20260509152025 53 152 6.0 13.0 0.00 0.00 0.00 47 972.4
20260509151525 53 176 6.0 11.0 0.00 0.00 0.00 48 972.6
20260509150955 53 164 5.0 11.0 0.00 0.00 0.00 47 972.4
20260509150425 53 181 4.0 11.0 0.00 0.00 0.00 48 972.6
20260509145924 53 215 4.0 11.0 0.00 0.00 0.00 48 972.7
20260509145355 53 230 4.0 8.0 0.00 0.00 0.00 47 972.7
20260509144854 53 270 4.0 8.0 0.00 0.00 0.00 47 972.7
20260509144354 53 246 4.0 11.0 0.00 0.00 0.00 47 972.8
20260509143854 53 200 5.0 12.0 0.00 0.00 0.00 47 972.8
20260509143354 53 173 5.0 13.0 0.00 0.00 0.00 47 972.7
20260509142854 53 248 4.0 13.0 0.00 0.00 0.00 47 972.8
20260509142354 54 222 4.0 12.0 0.00 0.00 0.00 47 973.0
20260509141854 54 237 4.0 12.0 0.00 0.00 0.00 46 973.0
20260509141354 54 246 5.0 13.0 0.00 0.00 0.00 47 973.0
20260509140854 54 262 6.0 15.0 0.00 0.00 0.00 46 973.0
20260509140324 54 236 6.0 15.0 0.00 0.00 0.00 47 973.0
20260509135824 55 252 6.0 17.0 0.00 0.00 0.00 47 973.2
20260509135324 55 255 6.0 22.0 0.00 0.00 0.00 46 973.3
20260509134824 55 265 6.0 22.0 0.00 0.00 0.00 46 973.3
20260509134324 54 297 5.0 14.0 0.00 0.00 0.00 48 973.4
20260509133754 54 172 5.0 14.0 0.00 0.00 0.00 47 973.3
20260509133254 54 249 5.0 12.0 0.00 0.00 0.00 48 973.7
20260509132724 54 207 5.0 16.0 0.00 0.00 0.00 48 973.7
20260509132224 54 218 5.0 16.0 0.00 0.00 0.00 47 973.6
20260509131724 54 233 5.0 16.0 0.00 0.00 0.00 48 973.7
20260509131154 54 192 5.0 12.0 0.00 0.00 0.00 48 973.8
20260509130654 54 255 5.0 20.0 0.00 0.00 0.00 47 973.9
20260509130154 54 206 7.0 20.0 0.00 0.00 0.00 47 973.9
20260509125624 54 222 7.0 15.0 0.00 0.00 0.00 46 974.0
20260509125124 55 201 5.0 14.0 0.00 0.00 0.00 47 974.0
20260509124624 55 202 5.0 10.0 0.00 0.00 0.00 48 974.1
20260509124054 55 286 5.0 20.0 0.00 0.00 0.00 47 974.1
20260509123554 55 208 6.0 28.0 0.00 0.00 0.00 47 974.1
20260509123054 55 243 6.0 28.0 0.00 0.00 0.00 45 974.0
20260509122554 55 255 5.0 14.0 0.00 0.00 0.00 48 974.2
20260509122024 55 265 6.0 23.0 0.00 0.00 0.00 47 974.1
20260509121524 54 237 7.0 23.0 0.00 0.00 0.00 47 974.3
20260509121024 54 229 7.0 24.0 0.00 0.00 0.00 48 974.3
20260509120454 54 202 7.0 24.0 0.00 0.00 0.00 48 974.3
20260509115954 54 204 7.0 25.0 0.00 0.00 0.00 48 974.3
20260509115424 54 219 7.0 25.0 0.00 0.00 0.00 48 974.3
20260509114924 54 201 7.0 21.0 0.00 0.00 0.00 48 974.3
20260509114423 54 198 6.0 18.0 0.00 0.00 0.00 47 974.4
20260509113924 55 254 5.0 18.0 0.00 0.00 0.00 48 974.4
20260509113423 55 269 5.0 17.0 0.00 0.00 0.00 47 974.4
20260509112853 54 309 6.0 18.0 0.00 0.00 0.00 45 974.4
20260509112353 55 143 6.0 18.0 0.00 0.00 0.00 46 974.4
20260509111853 55 294 7.0 22.0 0.00 0.00 0.00 45 974.4
20260509111323 55 21 7.0 22.0 0.00 0.00 0.00 45 974.4
20260509110823 55 174 6.0 22.0 0.00 0.00 0.00 46 974.7
20260509110323 55 204 5.0 15.0 0.00 0.00 0.00 47 974.6
20260509105753 54 198 5.0 14.0 0.00 0.00 0.00 47 974.7
20260509105253 54 83 5.0 16.0 0.00 0.00 0.00 46 974.6
20260509104753 55 216 5.0 16.0 0.00 0.00 0.00 46 974.8
20260509104253 55 246 6.0 23.0 0.00 0.00 0.00 45 974.6
20260509103753 56 203 7.0 23.0 0.00 0.00 0.00 44 974.6
20260509103253 56 138 7.0 26.0 0.00 0.00 0.00 44 974.6
20260509102723 56 45 6.0 26.0 0.00 0.00 0.00 43 974.7
20260509102223 56 196 6.0 26.0 0.00 0.00 0.00 43 974.7
20260509101653 56 257 5.0 14.0 0.00 0.00 0.00 45 974.9
20260509101123 56 228 6.0 18.0 0.00 0.00 0.00 44 974.9
20260509100623 56 193 6.0 18.0 0.00 0.00 0.00 45 974.8
20260509100123 56 149 6.0 18.0 0.00 0.00 0.00 44 975.0
20260509095623 56 186 5.0 14.0 0.00 0.00 0.00 45 975.1
20260509095053 56 91 5.0 16.0 0.00 0.00 0.00 43 975.0
20260509094553 56 257 5.0 16.0 0.00 0.00 0.00 45 975.1
20260509094053 56 194 4.0 15.0 0.00 0.00 0.00 45 975.1
20260509093553 56 235 4.0 9.0 0.00 0.00 0.00 47 975.2
20260509093053 56 201 4.0 9.0 0.00 0.00 0.00 47 975.3
20260509092553 55 325 4.0 9.0 0.00 0.00 0.00 45 975.2
20260509092053 55 200 4.0 11.0 0.00 0.00 0.00 46 975.3
20260509091553 55 271 4.0 11.0 0.00 0.00 0.00 47 975.3
20260509091053 55 219 4.0 11.0 0.00 0.00 0.00 48 975.3
20260509090552 55 182 5.0 11.0 0.00 0.00 0.00 48 975.3
20260509090052 55 223 5.0 11.0 0.00 0.00 0.00 47 975.2
20260509085522 55 172 5.0 13.0 0.00 0.00 0.00 47 975.1
20260509085022 56 172 5.0 13.0 0.00 0.00 0.00 47 975.3
20260509084522 56 262 6.0 13.0 0.00 0.00 0.00 46 975.2
20260509084022 56 215 6.0 14.0 0.00 0.00 0.00 47 975.4
20260509083452 57 231 5.0 14.0 0.00 0.00 0.00 45 975.3
20260509082952 57 182 5.0 13.0 0.00 0.00 0.00 46 975.4
20260509082452 58 257 4.0 13.0 0.00 0.00 0.00 46 975.4
20260509081952 58 144 4.0 12.0 0.00 0.00 0.00 45 975.3
20260509081452 57 184 5.0 13.0 0.00 0.00 0.00 48 975.4
20260509080952 56 143 5.0 13.0 0.00 0.00 0.00 46 975.3
20260509080422 56 246 5.0 21.0 0.00 0.00 0.00 47 975.4
20260509075852 56 226 5.0 21.0 0.00 0.00 0.00 47 975.3